Regional Weather Roundup
Issued by NWS Charleston, WV

Home | Current Version | Previous Version | Graphics & Text | Print | Product List | Glossary On
Versions: 1 2 3 4 5 6 7 8 9 10 11 12 13 14 15 16 17 18 19 20 21 22 23 24 25 26 27 28 29 30 31 32 33 34 35 36 37 38 39 40 41 42 43 44 45 46 47 48 49
000
ASUS41 KRLX 281310
RWRRLX
West Virginia Regional Weather Roundup
National Weather Service Charleston WV
900 AM EDT TUE JUL 28 2015

Note: "fair" indicates few or no clouds below 12,000 feet with no
significant weather and/or obstructions to visibility.

WVZ003-281400-
Northern Panhandle of West Virginia

CITY           SKY/WX    TMP DP  RH WIND       PRES   REMARKS
WHEELING       SUNNY     74  67  78 E6        30.05R
$$

WVZ009-281400-
Northwest West Virginia

CITY           SKY/WX    TMP DP  RH WIND       PRES   REMARKS
PARKERSBURG    FOG       72  71  97 CALM      30.05R VSB 1/4
$$

WVZ006-281400-
Western West Virginia

CITY           SKY/WX    TMP DP  RH WIND       PRES   REMARKS
HUNTINGTON     FOG       72  72 100 CALM      30.02R VSB 1
$$

WVZ015-281400-
West Central West Virginia

CITY           SKY/WX    TMP DP  RH WIND       PRES   REMARKS
CHARLESTON     PTSUNNY   72  70  93 CALM      30.03S FOG
$$

WVZ022-031-281400-
North Central West Virginia

CITY           SKY/WX    TMP DP  RH WIND       PRES   REMARKS
CLARKSBURG     SUNNY     75  71  87 E3        30.04S
MORGANTOWN     SUNNY     77  66  68 NE5       30.06R
$$

WVZ025-035-042-045-281400-
Southern West Virginia

CITY           SKY/WX    TMP DP  RH WIND       PRES   REMARKS
BECKLEY        SUNNY     74  68  81 S3        30.11R
LOGAN          FOG       72  72 100 CALM      30.03R VSB 1/2
BLUEFIELD      PTSUNNY   75  68  78 W3        30.14R
LEWISBURG      CLOUDY    69  67  94 CALM      30.12R FOG
$$

WVZ047-281400-
Northern Mountains of West Virginia

CITY           SKY/WX    TMP DP  RH WIND       PRES   REMARKS
ELKINS         MOSUNNY   70  65  84 CALM      30.09S
$$

WVZ052-281400-
Eastern Panhandle of West Virginia

CITY           SKY/WX    TMP DP  RH WIND       PRES   REMARKS
MARTINSBURG    PTSUNNY   76  70  82 NE5       30.05R HAZE
PETERSBURG     CLOUDY   N/A N/A N/A CALM      30.08S HAZE
$$


USA.gov is the U.S. government's official web portal to all federal, state and local government web resources and services.